• In Czech Republic
  • List of Countries
  • For 7 days
  • Water Temperature
  • Satellite Maps
  • Weather Map
  • Weather Widgets
  • user-avatar
    Login

    Hourly Weather Contla

    Today, 21 October, Sunday

    Time Temperature Precipitation Wind Pressure Humidity
    00:00 +13°C° 0 mm 3 mps 576 mmHg 92%
    01:00 +13°C° 0 mm 2 mps 576 mmHg 92%
    02:00 +13°C° 0 mm 2 mps 575 mmHg 93%
    03:00 +13°C° 0.1 mm 2 mps 576 mmHg 93%
    04:00 +13°C° 0.1 mm 3 mps 576 mmHg 92%
    05:00 +13°C° 0.1 mm 3 mps 576 mmHg 92%
    06:00 +14°C° 0 mm 3 mps 577 mmHg 87%
    07:00 +14°C° 0 mm 3 mps 577 mmHg 83%
    08:00 +15°C° 0 mm 4 mps 578 mmHg 78%
    09:00 +17°C° 0.1 mm 4 mps 578 mmHg 73%
    10:00 +19°C° 0.1 mm 4 mps 578 mmHg 69%
    11:00 +20°C° 0.1 mm 4 mps 579 mmHg 64%
    12:00 +19°C° 0.3 mm 4 mps 578 mmHg 66%
    13:00 +19°C° 0.3 mm 4 mps 577 mmHg 68%
    14:00 +19°C° 0.3 mm 4 mps 576 mmHg 70%
    15:00 +18°C° 0.4 mm 3 mps 576 mmHg 75%
    16:00 +17°C° 0.4 mm 3 mps 576 mmHg 80%
    17:00 +14°C° 0.4 mm 3 mps 575 mmHg 85%
    18:00 +14°C° 0.1 mm 3 mps 575 mmHg 87%
    19:00 +14°C° 0.1 mm 3 mps 576 mmHg 89%
    20:00 +13°C° 0.1 mm 3 mps 576 mmHg 91%
    21:00 +14°C° 0.1 mm 2 mps 576 mmHg 91%
    22:00 +14°C° 0.1 mm 2 mps 576 mmHg 91%
    23:00 +14°C° 0.1 mm 2 mps 576 mmHg 91%

    Tomorrow, 22 October, Monday

    Time Temperature Precipitation Wind Pressure Humidity
    00:00 +13°C° 0 mm 2 mps 576 mmHg 91%
    01:00 +13°C° 0 mm 2 mps 575 mmHg 91%
    02:00 +13°C° 0 mm 2 mps 575 mmHg 91%
    03:00 +13°C° 0 mm 2 mps 575 mmHg 92%
    04:00 +12°C° 0 mm 2 mps 574 mmHg 92%
    05:00 +12°C° 0 mm 2 mps 574 mmHg 93%
    06:00 +13°C° 0 mm 2 mps 575 mmHg 86%
    07:00 +14°C° 0 mm 2 mps 576 mmHg 79%
    08:00 +15°C° 0 mm 2 mps 577 mmHg 72%
    09:00 +17°C° 0 mm 2 mps 578 mmHg 64%
    10:00 +19°C° 0 mm 2 mps 578 mmHg 57%
    11:00 +20°C° 0 mm 3 mps 579 mmHg 49%
    12:00 +21°C° 0 mm 3 mps 578 mmHg 50%
    13:00 +21°C° 0 mm 4 mps 578 mmHg 50%
    14:00 +21°C° 0 mm 4 mps 577 mmHg 50%
    15:00 +20°C° 0.1 mm 3 mps 577 mmHg 59%
    16:00 +18°C° 0.1 mm 3 mps 576 mmHg 67%
    17:00 +17°C° 0.1 mm 2 mps 576 mmHg 75%
    18:00 +16°C° 0.1 mm 2 mps 576 mmHg 79%
    19:00 +15°C° 0.1 mm 2 mps 576 mmHg 83%
    20:00 +14°C° 0.1 mm 1 mps 576 mmHg 86%
    21:00 +14°C° 0 mm 1 mps 576 mmHg 87%
    22:00 +14°C° 0 mm 1 mps 576 mmHg 88%
    23:00 +13°C° 0 mm 1 mps 576 mmHg 89%

    Day after tomorrow, 23 October, Tuesday

    Time Temperature Precipitation Wind Pressure Humidity
    00:00 +13°C° 0 mm 1 mps 575 mmHg 90%
    01:00 +13°C° 0 mm 1 mps 575 mmHg 91%
    02:00 +13°C° 0 mm 1 mps 575 mmHg 91%
    03:00 +13°C° 0 mm 1 mps 575 mmHg 92%
    04:00 +13°C° 0 mm 1 mps 575 mmHg 92%
    05:00 +12°C° 0 mm 1 mps 574 mmHg 92%
    06:00 +14°C° 0 mm 1 mps 575 mmHg 86%
    07:00 +15°C° 0 mm 1 mps 576 mmHg 79%
    08:00 +16°C° 0 mm 1 mps 577 mmHg 73%
    09:00 +18°C° 0 mm 2 mps 578 mmHg 68%
    10:00 +19°C° 0 mm 2 mps 578 mmHg 64%
    11:00 +20°C° 0 mm 3 mps 578 mmHg 59%
    12:00 +20°C° 0.1 mm 3 mps 578 mmHg 58%
    13:00 +21°C° 0.1 mm 3 mps 577 mmHg 57%
    14:00 +21°C° 0.1 mm 3 mps 576 mmHg 56%
    15:00 +20°C° 0 mm 3 mps 576 mmHg 63%
    16:00 +18°C° 0 mm 3 mps 575 mmHg 69%
    17:00 +17°C° 0 mm 2 mps 575 mmHg 76%
    18:00 +16°C° 0 mm 2 mps 575 mmHg 80%
    19:00 +15°C° 0 mm 1 mps 575 mmHg 84%
    20:00 +14°C° 0 mm 1 mps 575 mmHg 88%
    21:00 +14°C° 0 mm 1 mps 575 mmHg 89%
    22:00 +13°C° 0 mm 1 mps 575 mmHg 89%
    23:00 +13°C° 0 mm 1 mps 575 mmHg 90%

    24 October, Wednesday

    Time Temperature Precipitation Wind Pressure Humidity
    00:00 +13°C° 0 mm 1 mps 575 mmHg 90%
    01:00 +13°C° 0 mm 1 mps 574 mmHg 91%
    02:00 +13°C° 0 mm 1 mps 574 mmHg 91%
    03:00 +13°C° 0 mm 1 mps 574 mmHg 91%
    04:00 +12°C° 0 mm 1 mps 574 mmHg 91%
    05:00 +12°C° 0 mm 1 mps 574 mmHg 91%
    06:00 +14°C° 0 mm 1 mps 575 mmHg 86%
    07:00 +15°C° 0 mm 1 mps 576 mmHg 80%
    08:00 +17°C° 0 mm 2 mps 577 mmHg 75%
    09:00 +18°C° 0 mm 2 mps 577 mmHg 67%
    10:00 +20°C° 0 mm 2 mps 577 mmHg 59%
    11:00 +21°C° 0 mm 3 mps 578 mmHg 51%
    12:00 +22°C° 0 mm 3 mps 577 mmHg 51%
    13:00 +22°C° 0 mm 3 mps 577 mmHg 50%
    14:00 +22°C° 0 mm 3 mps 576 mmHg 49%
    15:00 +20°C° 0 mm 3 mps 576 mmHg 58%
    16:00 +19°C° 0 mm 2 mps 575 mmHg 66%
    17:00 +17°C° 0 mm 2 mps 575 mmHg 75%
    18:00 +16°C° 0 mm 2 mps 575 mmHg 80%
    19:00 +15°C° 0 mm 1 mps 575 mmHg 84%
    20:00 +14°C° 0 mm 1 mps 575 mmHg 89%
    21:00 +14°C° 0 mm 1 mps 575 mmHg 90%
    22:00 +14°C° 0 mm 1 mps 574 mmHg 90%
    23:00 +13°C° 0 mm 1 mps 574 mmHg 90%

    25 October, Thursday

    Time Temperature Precipitation Wind Pressure Humidity
    00:00 +13°C° 0 mm 1 mps 574 mmHg 90%
    01:00 +12°C° 0 mm 1 mps 573 mmHg 90%
    02:00 +12°C° 0 mm 1 mps 573 mmHg 90%
    03:00 +12°C° 0 mm 1 mps 573 mmHg 89%
    04:00 +12°C° 0 mm 1 mps 573 mmHg 89%
    05:00 +11°C° 0 mm 1 mps 573 mmHg 88%
    06:00 +13°C° 0 mm 1 mps 575 mmHg 80%
    07:00 +14°C° 0 mm 0 mps 576 mmHg 72%
    08:00 +16°C° 0 mm 0 mps 577 mmHg 64%
    09:00 +20°C° 0 mm 1 mps 577 mmHg 58%
    10:00 +21°C° 0 mm 1 mps 577 mmHg 52%
    11:00 +21°C° 0 mm 2 mps 578 mmHg 47%
    12:00 +21°C° 0 mm 2 mps 577 mmHg 48%
    13:00 +21°C° 0 mm 2 mps 577 mmHg 49%
    14:00 +22°C° 0 mm 3 mps 576 mmHg 50%
    15:00 +20°C° 0.2 mm 3 mps 576 mmHg 58%
    16:00 +19°C° 0.2 mm 2 mps 575 mmHg 67%
    17:00 +17°C° 0.2 mm 2 mps 575 mmHg 75%
    18:00 +16°C° 0.2 mm 2 mps 575 mmHg 79%
    19:00 +16°C° 0.2 mm 2 mps 575 mmHg 82%
    20:00 +15°C° 0.2 mm 1 mps 575 mmHg 85%
    21:00 +15°C° 0.1 mm 1 mps 575 mmHg 86%
    22:00 +15°C° 0.1 mm 1 mps 575 mmHg 87%
    23:00 +14°C° 0.1 mm 1 mps 575 mmHg 88%

    26 October, Friday

    Time Temperature Precipitation Wind Pressure Humidity
    00:00 +14°C° 0.1 mm 1 mps 574 mmHg 89%
    01:00 +14°C° 0.1 mm 1 mps 574 mmHg 89%
    02:00 +13°C° 0.1 mm 0 mps 574 mmHg 90%
    03:00 +12°C° 0 mm 0 mps 574 mmHg 90%
    04:00 +12°C° 0 mm 0 mps 574 mmHg 91%
    05:00 +12°C° 0 mm 0 mps 574 mmHg 91%
    06:00 +14°C° 0 mm 1 mps 575 mmHg 85%
    07:00 +16°C° 0 mm 1 mps 576 mmHg 78%
    08:00 +18°C° 0 mm 1 mps 577 mmHg 72%
    09:00 +19°C° 0.1 mm 1 mps 577 mmHg 67%
    10:00 +20°C° 0.1 mm 1 mps 577 mmHg 62%
    11:00 +22°C° 0.1 mm 1 mps 577 mmHg 57%
    12:00 +21°C° 0.9 mm 2 mps 577 mmHg 58%
    13:00 +21°C° 0.9 mm 2 mps 576 mmHg 59%
    14:00 +20°C° 0.9 mm 2 mps 575 mmHg 60%
    15:00 +19°C° 1.4 mm 2 mps 575 mmHg 67%
    16:00 +18°C° 1.4 mm 2 mps 575 mmHg 74%
    17:00 +17°C° 1.4 mm 2 mps 574 mmHg 81%
    18:00 +16°C° 0.5 mm 1 mps 575 mmHg 82%
    19:00 +16°C° 0.5 mm 1 mps 575 mmHg 84%
    20:00 +14°C° 0.5 mm 0 mps 575 mmHg 85%
    21:00 +15°C° 0.1 mm 1 mps 575 mmHg 86%
    22:00 +14°C° 0.1 mm 1 mps 575 mmHg 87%
    23:00 +14°C° 0.1 mm 1 mps 574 mmHg 88%
    Show more